Flag for Germany Weather past 2 weeks in Paderborn, North Rhine-Westphalia, Germany

Now
61 °F

Scattered clouds.


Feels Like: 61 °F
Forecast: 45 / 67 °F
Wind: 10 mph from West

Location: Paderborn / Lippstadt

Current Time: Aug 20, 2014 at 1:29:56 PM

Latest Report: Aug 20, 2014 at 12:50 PM


Visibility: N/A

Pressure: 30.01 "Hg

Humidity: 55%

Dew point: 45 °F

Location of PaderbornLocation

Historic Weather in Paderborn — Graph

°F

Paderborn temperature yesterday

Maximum temperature yesterday: 57 °F (at 9:20 AM)
Minimum temperature yesterday: 46 °F (at 11:50 PM)
Average temperature yesterday: 53 °F

Past Weeks' High & Low Weather Summary

 TemperatureHumidityPressure
High77 °F (Aug 8, 2:50 PM)100% (Aug 7, 4:20 AM)30.12 "Hg (Aug 7, 4:20 AM)
Low46 °F (Aug 19, 11:50 PM)38% (Aug 11, 5:20 PM)29.62 "Hg (Aug 10, 8:20 PM)
Average61 °F71%29.88 "Hg
* Reported Aug 5 12:20 PM — Aug 20 12:20 PM, Paderborn, Weather by CustomWeather, © 2014

Note: Actual official high and low records may vary slightly from our data, if they occured in-between our weather recording intervals... More about our weather records

Advertising

Paderborn weather history for previous 24 hours

 ConditionsComfort  
Time TempWeatherWind HumidityBarometerVisibility
12:20 PM
Aug 20
57 °FScattered clouds.13 mph63%30.01 "HgN/A
11:50 AM57 °FScattered clouds.10 mph63%30.01 "HgN/A
11:20 AM55 °FScattered clouds.10 mph67%30.01 "HgN/A
10:50 AM55 °FPassing clouds.10 mph67%30.01 "HgN/A
10:20 AM55 °FPassing clouds.12 mph67%30.01 "HgN/A
9:50 AM54 °FPassing clouds.10 mph72%30.01 "HgN/A
9:20 AM52 °FPassing clouds.12 mph72%29.98 "HgN/A
8:50 AM52 °FScattered clouds.12 mph72%29.98 "HgN/A
8:20 AM50 °FScattered clouds.13 mph76%29.98 "HgN/A
7:50 AM50 °FScattered clouds.12 mph76%29.98 "HgN/A
7:20 AM46 °FScattered clouds.10 mph87%29.98 "HgN/A
6:50 AM46 °FPassing clouds.10 mph87%29.98 "HgN/A
6:20 AM46 °FPassing clouds.10 mph87%29.98 "HgN/A
5:50 AM46 °FPassing clouds.10 mph82%29.95 "HgN/A
5:20 AM48 °FClear.12 mph82%29.95 "Hg10 mi
4:50 AM48 °FPassing clouds.12 mph76%29.95 "HgN/A
4:20 AM48 °FPassing clouds.12 mph76%29.95 "HgN/A
3:50 AM46 °FPassing clouds.12 mph82%29.95 "HgN/A
3:20 AM48 °FPassing clouds.9 mph76%29.95 "HgN/A
11:50 PM
Aug 19
46 °FClear.10 mph87%29.92 "Hg10 mi
11:20 PM48 °FClear.12 mph82%29.92 "Hg10 mi
10:50 PM48 °FClear.13 mph82%29.92 "Hg10 mi
10:20 PM50 °FClear.13 mph76%29.92 "Hg10 mi
9:50 PM50 °FPassing clouds.12 mph76%29.92 "HgN/A
9:20 PM50 °FPassing clouds.12 mph82%29.89 "HgN/A
8:50 PM50 °FSunny.13 mph82%29.89 "Hg10 mi
8:20 PM50 °FSprinkles. Passing clouds.13 mph82%29.89 "HgN/A
7:50 PM50 °FSprinkles. Scattered clouds.14 mph82%29.86 "HgN/A
7:20 PM50 °FSprinkles. Scattered clouds.10 mph71%29.86 "HgN/A
6:50 PM54 °FScattered showers. Scattered clouds.10 mph72%29.86 "HgN/A
6:20 PM55 °FScattered clouds.15 mph77%29.83 "HgN/A
5:50 PM55 °FScattered clouds.15 mph77%29.83 "HgN/A
5:20 PM55 °FPassing clouds.13 mph77%29.83 "HgN/A
4:50 PM54 °FPassing clouds.10 mph82%29.83 "HgN/A
4:20 PM54 °FBroken clouds.10 mph77%29.83 "HgN/A
3:50 PM52 °FLight rain. Broken clouds.13 mph82%29.83 "Hg5 mi
3:20 PM52 °FLight rain. Broken clouds.13 mph82%29.83 "Hg5 mi
2:50 PM52 °FLight rain. Partly sunny.12 mph88%29.83 "Hg5 mi
2:20 PM55 °FLight rain. Broken clouds.12 mph82%29.83 "Hg5 mi
1:50 PM55 °FLight rain. Scattered clouds.13 mph77%29.80 "Hg6 mi
1:20 PM57 °FScattered clouds.13 mph72%29.83 "HgN/A
Weather by CustomWeather, © 2014

See weather overviewHow to use our weather pages